User: anonymous   Login
Location: Unspecified
(0.0000°N, 0.0000°E)
Time: 22:17:57
(UTC+00:00)
Language:

STARLINK-34242 - Orbit

View from above orbital plane
View from above orbital plane
View from above satellite
View from above satellite

Ground track
Ground track

The orbit is defined by the following mean orbital elements,

1 64727U          26145.53553867 +.00000000 +00000-0 +35664-3 0 00006
2 64727  53.1575 184.3634 0001170  75.5216 284.5915 15.30203100    07
Epoch (UTC): 25 May 2026 12:51:10
Eccentricity: 0.0001170
inclination: 53.1575°
perigee height: 474 km
apogee height: 476 km
right ascension of ascending node: 184.3634°
argument of perigee: 75.5216°
revolutions per day: 15.30203100
mean anomaly at epoch: 284.5915°

The dashed part of the orbit path shows where the satellite is in the earth's shadow,  

DLR